Flag for Malaysia Weather past 2 weeks in Kuching, Malaysia

Now
77 °F

Thunderstorms. Partly cloudy.


Feels Like: 78 °F
Forecast: 77 / 87 °F
Wind: 5 mph from East

Location: Kuching Airport

Current Time: Dec 26, 2014 at 2:38:51 AM

Latest Report: Dec 26, 2014 at 2:00 AM


Visibility: 4 mi

Pressure: 29.80 "Hg

Humidity: 94%

Dew point: 75 °F

Location of KuchingLocation

Historic Weather in Kuching — Graph

°F

Kuching temperature yesterday

Maximum temperature yesterday: 88 °F (at 12:30 PM)
Minimum temperature yesterday: 75 °F (at 3:30 AM)
Average temperature yesterday: 80 °F

Past Weeks' High & Low Weather Summary

 TemperatureHumidityPressure
High93 °F (Dec 22, 3:00 PM)100% (Dec 11, 3:00 AM)29.92 "Hg (Dec 11, 3:00 AM)
Low73 °F (Dec 22, 4:30 AM)52% (Dec 12, 2:00 PM)29.65 "Hg (Dec 22, 3:30 PM)
Average80 °F84%29.82 "Hg
* Reported Dec 11 1:00 AM — Dec 26 1:30 AM, Kuching, Weather by CustomWeather, © 2014

Note: Actual official high and low records may vary slightly from our data, if they occured in-between our weather recording intervals... More about our weather records

Advertising

Kuching weather history for previous 24 hours

 ConditionsComfort  
Time TempWeatherWind HumidityBarometerVisibility
1:30 AM
Dec 26
77 °FThunderstorms. Partly cloudy.5 mph94%29.80 "Hg5 mi
1:00 AM77 °FThunderstorms. Partly cloudy.7 mph94%29.83 "Hg5 mi
12:30 AM77 °FLight rain. Partly cloudy.3 mph94%29.83 "HgN/A
12:00 AM77 °FLight rain. Partly cloudy.3 mph94%29.83 "HgN/A
11:30 PM
Dec 25
77 °FLight rain. Partly cloudy.1 mph94%29.83 "HgN/A
11:00 PM77 °FPartly cloudy.2 mph94%29.83 "HgN/A
10:30 PM77 °FPartly cloudy.6 mph89%29.83 "HgN/A
10:00 PM79 °FPartly cloudy.2 mph89%29.80 "HgN/A
9:30 PM79 °FPartly cloudy.1 mph89%29.80 "HgN/A
9:00 PM79 °FPartly cloudy.3 mph89%29.80 "HgN/A
8:30 PM79 °FPartly cloudy.3 mph89%29.80 "HgN/A
8:00 PM79 °FPartly cloudy.5 mph89%29.80 "HgN/A
7:30 PM79 °FPartly cloudy.3 mph89%29.77 "HgN/A
7:00 PM79 °FPartly cloudy.2 mph89%29.77 "HgN/A
6:30 PM81 °FBroken clouds.6 mph84%29.77 "HgN/A
6:00 PM81 °FBroken clouds.3 mph84%29.74 "HgN/A
5:30 PM82 °FPartly sunny.6 mph79%29.74 "HgN/A
5:00 PM86 °FBroken clouds.7 mph70%29.71 "Hg6 mi
4:30 PM88 °FBroken clouds.9 mph66%29.71 "Hg6 mi
4:00 PM88 °FRain showers. Broken clouds.8 mph66%29.71 "Hg6 mi
3:30 PM88 °FBroken clouds.9 mph70%29.71 "HgN/A
3:00 PM88 °FBroken clouds.9 mph66%29.74 "HgN/A
2:30 PM86 °FBroken clouds.9 mph70%29.74 "HgN/A
2:00 PM88 °FBroken clouds.8 mph66%29.74 "HgN/A
1:30 PM88 °FBroken clouds.7 mph70%29.77 "HgN/A
1:00 PM88 °FBroken clouds.8 mph70%29.80 "HgN/A
12:30 PM88 °FBroken clouds.6 mph70%29.83 "HgN/A
11:30 AM86 °FBroken clouds.1 mph75%29.83 "HgN/A
11:00 AM84 °FBroken clouds.5 mph79%29.86 "HgN/A
10:30 AM84 °FBroken clouds.5 mph79%29.86 "HgN/A
10:00 AM82 °FBroken clouds.3 mph84%29.86 "HgN/A
9:30 AM81 °FBroken clouds.2 mph89%29.86 "HgN/A
9:00 AM81 °FPartly sunny.3 mph84%29.89 "HgN/A
8:30 AM79 °FBroken clouds.5 mph89%29.86 "HgN/A
8:00 AM77 °FBroken clouds.2 mph94%29.86 "HgN/A
7:30 AM77 °FBroken clouds.1 mph94%29.83 "HgN/A
7:00 AM75 °FBroken clouds.No wind94%29.83 "HgN/A
6:30 AM75 °FPartly cloudy.1 mph94%29.83 "HgN/A
6:00 AM75 °FPartly cloudy.2 mph94%29.83 "HgN/A
5:30 AM77 °FPartly cloudy.2 mph94%29.80 "HgN/A
5:00 AM75 °FPartly cloudy.1 mph100%29.80 "Hg5 mi
4:30 AM75 °FPartly cloudy.2 mph100%29.80 "Hg4 mi
4:00 AM75 °FPassing clouds.2 mph94%29.80 "Hg4 mi
3:30 AM75 °FPassing clouds.No wind100%29.80 "Hg4 mi
3:00 AM77 °FPassing clouds.No wind94%29.80 "Hg4 mi
2:30 AM77 °FPartly cloudy.1 mph94%29.80 "Hg4 mi
2:00 AM77 °FPartly cloudy.No wind94%29.80 "Hg4 mi
Weather by CustomWeather, © 2014

See weather overviewHow to use our weather pages